Skip Page Navigation
NASA JPL Caltech
NASA Logo - Jet Propulsion Laboratory + View the NASA Portal
+ Center for Near-Earth Object Studies
JPL Home Earth Solar System Stars & Galaxies Technology
JPL Solar System Dynamics
BODIES ORBITS EPHEMERIDES TOOLS PHYSICAL DATA DISCOVERY FAQ SITE MAP
JPL Small-Body Database Browser
Search: [ help ]  
277716 (2006 DS32)
Classification: Main-belt Asteroid          SPK-ID: 2277716
Ephemeris | Orbit Diagram | Orbital Elements | Mission Design | Physical Parameters | Discovery Circumstances | Close-Approach Data ]

[ show orbit diagram ]
Orbital Elements at Epoch 2459000.5 (2020-May-31.0) TDB
Reference: JPL 14 (heliocentric ecliptic J2000)
 Element Value Uncertainty (1-sigma)   Units 
e .0518421181014672 5.3732e-08  
a 2.827920728330421 2.6829e-08 au
q 2.681315327950728 1.5266e-07 au
i 2.37597147756573 7.2478e-06 deg
node 169.3361677510647 0.00013412 deg
peri 252.8676724210935 0.00014967 deg
M 102.4088660282619 6.6857e-05 deg
tp 2458506.377841161377
(2019-Jan-22.87784116)
0.00032206 TDB
period 1736.99782138798
4.76
2.4719e-05
6.768e-08
d
yr
n .2072541459564614 2.9494e-09 deg/d
Q 2.974526128710114 2.822e-08 au
  Orbit Determination Parameters
   # obs. used (total)      234  
   data-arc span      8847 days (24.22 yr)  
   first obs. used      1996-01-27  
   last obs. used      2020-04-17  
   planetary ephem.      DE431  
   SB-pert. ephem.      SB431-N16  
   condition code      0  
   norm. resid. RMS      .5935  
   source      ORB  
   producer      Otto Matic  
   solution date      2020-May-21 16:28:46  

Additional Information
 Earth MOID = 1.69521 au 
 Jupiter MOID = 2.19146 au 
 T_jup = 3.311 
[ show covariance matrix ]

Ephemeris | Orbit Diagram | Orbital Elements | Mission Design | Physical Parameters | Discovery Circumstances | Close-Approach Data ]

Physical Parameter Table
Parameter Symbol Value Units Sigma Reference Notes
absolute magnitude H 16.5   n/a MPO418476  

277716 (2006 DS32)          Discovered 2006-Feb-20 by Mt. Lemmon Survey at Mount Lemmon
Reference: 20110517/Numbers.arcLast Updated: 2011-05-20

[ show close-approach data ]
Ephemeris | Orbit Diagram | Orbital Elements | Mission Design | Physical Parameters | Discovery Circumstances | Close-Approach Data ]
ABOUT SSD CREDITS/AWARDS PRIVACY/COPYRIGHT GLOSSARY LINKS
FirstGov 2020-Aug-08 04:03 UT
(server date/time)  
NASA Home Page
Site Manager:   Ryan S. Park
Webmaster  Alan B. Chamberlin